| time (UTC) | temp F | wind direction | speed MPH | gust MPH | rain 1hr in | rain 24hr in | rain mn in | humidity % | barometer mb |
| 20260906193707 | 96 | 152 | 5.0 | 12.0 | 0.00 | 0.00 | 0.00 | 36 | 1014.2 |
| 20260906193208 | 96 | 200 | 3.0 | 12.0 | 0.00 | 0.00 | 0.00 | 37 | 1014.2 |
| 20260906192708 | 97 | 225 | 7.0 | 12.0 | 0.00 | 0.00 | 0.00 | 35 | 1014.3 |
| 20260906192208 | 96 | 156 | 3.0 | 12.0 | 0.00 | 0.00 | 0.00 | 36 | 1014.3 |
| 20260906191707 | 97 | 155 | 6.0 | 12.0 | 0.00 | 0.00 | 0.00 | 35 | 1014.5 |
| 20260906191207 | 96 | 117 | 3.0 | 12.0 | 0.00 | 0.00 | 0.00 | 37 | 1014.6 |
| 20260906190708 | 96 | 263 | 5.0 | 14.0 | 0.00 | 0.00 | 0.00 | 37 | 1014.7 |
| 20260906190208 | 97 | 158 | 7.0 | 14.0 | 0.00 | 0.00 | 0.00 | 35 | 1014.7 |
| 20260906185708 | 97 | 121 | 3.0 | 10.0 | 0.00 | 0.00 | 0.00 | 34 | 1014.8 |
| 20260906185208 | 97 | 151 | 6.0 | 10.0 | 0.00 | 0.00 | 0.00 | 35 | 1014.7 |
| 20260906184708 | 97 | 151 | 5.0 | 10.0 | 0.00 | 0.00 | 0.00 | 36 | 1014.9 |
| 20260906184207 | 97 | 224 | 4.0 | 8.0 | 0.00 | 0.00 | 0.00 | 36 | 1014.9 |
| 20260906183708 | 97 | 107 | 2.0 | 15.0 | 0.00 | 0.00 | 0.00 | 37 | 1015.0 |
| 20260906182707 | 97 | 183 | 3.0 | 10.0 | 0.00 | 0.00 | 0.00 | 39 | 1015.2 |
| 20260906182208 | 96 | 163 | 3.0 | 12.0 | 0.00 | 0.00 | 0.00 | 39 | 1015.2 |
| 20260906181708 | 96 | 156 | 5.0 | 12.0 | 0.00 | 0.00 | 0.00 | 38 | 1015.4 |
| 20260906181207 | 97 | 202 | 3.0 | 7.0 | 0.00 | 0.00 | 0.00 | 38 | 1015.4 |
| 20260906180708 | 96 | 217 | 3.0 | 12.0 | 0.00 | 0.00 | 0.00 | 37 | 1015.4 |
| 20260906180207 | 96 | 154 | 3.0 | 12.0 | 0.00 | 0.00 | 0.00 | 36 | 1015.6 |
| 20260906175715 | 97 | 155 | 6.0 | 16.0 | 0.00 | 0.00 | 0.00 | 35 | 1015.7 |
| 20260906175208 | 97 | 138 | 3.0 | 16.0 | 0.00 | 0.00 | 0.00 | 36 | 1015.9 |
| 20260906174708 | 97 | 104 | 6.0 | 16.0 | 0.00 | 0.00 | 0.00 | 35 | 1015.9 |
| 20260906174207 | 96 | 122 | 5.0 | 15.0 | 0.00 | 0.00 | 0.00 | 36 | 1016.0 |
| 20260906173208 | 97 | 149 | 7.0 | 15.0 | 0.00 | 0.00 | 0.00 | 36 | 1016.3 |
| 20260906172707 | 97 | 281 | 3.0 | 16.0 | 0.00 | 0.00 | 0.00 | 40 | 1016.4 |
| 20260906172208 | 96 | 216 | 7.0 | 16.0 | 0.00 | 0.00 | 0.00 | 38 | 1016.5 |
| 20260906171708 | 97 | 142 | 4.0 | 14.0 | 0.00 | 0.00 | 0.00 | 37 | 1016.4 |
| 20260906171208 | 99 | 159 | 3.0 | 10.0 | 0.00 | 0.00 | 0.00 | 37 | 1016.5 |
| 20260906170708 | 97 | 223 | 2.0 | 9.0 | 0.00 | 0.00 | 0.00 | 44 | 1016.6 |
| 20260906170207 | 97 | 133 | 3.0 | 10.0 | 0.00 | 0.00 | 0.00 | 36 | 1016.7 |
| 20260906165708 | 98 | 314 | 3.0 | 14.0 | 0.00 | 0.00 | 0.00 | 39 | 1016.6 |
| 20260906165208 | 96 | 279 | 7.0 | 14.0 | 0.00 | 0.00 | 0.00 | 39 | 1016.7 |
| 20260906164708 | 96 | 154 | 3.0 | 8.0 | 0.00 | 0.00 | 0.00 | 39 | 1016.8 |
| 20260906164208 | 96 | 233 | 2.0 | 8.0 | 0.00 | 0.00 | 0.00 | 40 | 1016.8 |
| 20260906163708 | 96 | 227 | 3.0 | 7.0 | 0.00 | 0.00 | 0.00 | 38 | 1016.9 |
| 20260906163208 | 97 | 321 | 3.0 | 7.0 | 0.00 | 0.00 | 0.00 | 41 | 1016.9 |
| 20260906162708 | 97 | 190 | 3.0 | 6.0 | 0.00 | 0.00 | 0.00 | 37 | 1017.0 |
| 20260906162207 | 97 | 255 | 3.0 | 6.0 | 0.00 | 0.00 | 0.00 | 41 | 1017.1 |
| 20260906161707 | 95 | 230 | 3.0 | 9.0 | 0.00 | 0.00 | 0.00 | 41 | 1017.1 |
| 20260906161208 | 95 | 218 | 3.0 | 12.0 | 0.00 | 0.00 | 0.00 | 41 | 1017.0 |
| 20260906160208 | 95 | 278 | 7.0 | 12.0 | 0.00 | 0.00 | 0.00 | 39 | 1016.8 |
| 20260906155707 | 95 | 282 | 6.0 | 12.0 | 0.00 | 0.00 | 0.00 | 41 | 1016.9 |
| 20260906154708 | 94 | 274 | 8.0 | 14.0 | 0.00 | 0.00 | 0.00 | 41 | 1016.7 |
| 20260906154208 | 94 | 284 | 8.0 | 14.0 | 0.00 | 0.00 | 0.00 | 41 | 1016.7 |
| 20260906153208 | 93 | 266 | 7.0 | 14.0 | 0.00 | 0.00 | 0.00 | 42 | 1016.6 |
| 20260906152708 | 92 | 263 | 5.0 | 14.0 | 0.00 | 0.00 | 0.00 | 44 | 1016.4 |
| 20260906152208 | 92 | 262 | 6.0 | 15.0 | 0.00 | 0.00 | 0.00 | 43 | 1016.5 |
| 20260906151208 | 92 | 261 | 6.0 | 12.0 | 0.00 | 0.00 | 0.00 | 44 | 1016.7 |
| 20260906150708 | 92 | 250 | 6.0 | 12.0 | 0.00 | 0.00 | 0.00 | 46 | 1016.7 |
| 20260906150207 | 92 | 269 | 9.0 | 12.0 | 0.00 | 0.00 | 0.00 | 44 | 1016.6 |
| 20260906145708 | 92 | 284 | 9.0 | 12.0 | 0.00 | 0.00 | 0.00 | 44 | 1016.6 |
| 20260906145208 | 91 | 259 | 3.0 | 14.0 | 0.00 | 0.00 | 0.00 | 45 | 1016.6 |
| 20260906144707 | 91 | 279 | 8.0 | 14.0 | 0.00 | 0.00 | 0.00 | 45 | 1016.5 |
| 20260906143707 | 90 | 183 | 2.0 | 6.0 | 0.00 | 0.00 | 0.00 | 47 | 1016.5 |
| 20260906143208 | 89 | 150 | 2.0 | 6.0 | 0.00 | 0.00 | 0.00 | 47 | 1016.5 |
| 20260906142708 | 88 | 144 | 2.0 | 3.0 | 0.00 | 0.00 | 0.00 | 49 | 1016.5 |
| 20260906142207 | 88 | 139 | 2.0 | 3.0 | 0.00 | 0.00 | 0.00 | 52 | 1016.5 |
| 20260906141707 | 87 | 139 | 2.0 | 6.0 | 0.00 | 0.00 | 0.00 | 52 | 1016.5 |
| 20260906141207 | 86 | 139 | 2.0 | 6.0 | 0.00 | 0.00 | 0.00 | 52 | 1016.5 |
| 20260906140708 | 86 | 138 | 2.0 | 3.0 | 0.00 | 0.00 | 0.00 | 53 | 1016.4 |
| 20260906140207 | 86 | 137 | 1.0 | 2.0 | 0.00 | 0.00 | 0.00 | 55 | 1016.4 |
| 20260906135707 | 85 | 137 | 1.0 | 2.0 | 0.00 | 0.00 | 0.00 | 55 | 1016.5 |
| 20260906135208 | 84 | 137 | 1.0 | 2.0 | 0.00 | 0.00 | 0.00 | 55 | 1016.4 |
| 20260906133708 | 81 | 136 | 1.0 | 2.0 | 0.00 | 0.00 | 0.00 | 61 | 1016.4 |
| 20260906133207 | 80 | 136 | 1.0 | 2.0 | 0.00 | 0.00 | 0.00 | 62 | 1016.2 |
| 20260906132707 | 79 | 136 | 1.0 | 3.0 | 0.00 | 0.00 | 0.00 | 63 | 1016.2 |
| 20260906132208 | 79 | 136 | 1.0 | 3.0 | 0.00 | 0.00 | 0.00 | 64 | 1016.0 |
| 20260906131708 | 78 | 136 | 1.0 | 3.0 | 0.00 | 0.00 | 0.00 | 65 | 1016.0 |
| 20260906131208 | 78 | 136 | 1.0 | 3.0 | 0.00 | 0.00 | 0.00 | 65 | 1016.0 |
| 20260906130207 | 77 | 136 | 2.0 | 3.0 | 0.00 | 0.00 | 0.00 | 66 | 1015.8 |
| 20260906125708 | 77 | 136 | 1.0 | 3.0 | 0.00 | 0.00 | 0.00 | 66 | 1015.7 |
| 20260906125208 | 77 | 136 | 2.0 | 3.0 | 0.00 | 0.00 | 0.00 | 68 | 1015.6 |
| 20260906124708 | 76 | 136 | 1.0 | 3.0 | 0.00 | 0.00 | 0.00 | 68 | 1015.5 |
| 20260906124207 | 77 | 136 | 1.0 | 3.0 | 0.00 | 0.00 | 0.00 | 66 | 1015.5 |
| 20260906123707 | 77 | 136 | 2.0 | 3.0 | 0.00 | 0.00 | 0.00 | 66 | 1015.4 |
| 20260906123208 | 77 | 136 | 2.0 | 3.0 | 0.00 | 0.00 | 0.00 | 68 | 1015.3 |
| 20260906122708 | 76 | 136 | 2.0 | 3.0 | 0.00 | 0.00 | 0.00 | 68 | 1015.3 |
| 20260906122207 | 76 | 136 | 1.0 | 6.0 | 0.00 | 0.00 | 0.00 | 66 | 1015.3 |
| 20260906121707 | 77 | 136 | 2.0 | 6.0 | 0.00 | 0.00 | 0.00 | 66 | 1015.3 |
| 20260906121208 | 77 | 138 | 2.0 | 6.0 | 0.00 | 0.00 | 0.00 | 66 | 1015.4 |
| 20260906120707 | 77 | 121 | 2.0 | 3.0 | 0.00 | 0.00 | 0.00 | 66 | 1015.3 |
| 20260906120207 | 77 | 121 | 3.0 | 3.0 | 0.00 | 0.00 | 0.00 | 66 | 1015.2 |
| 20260906115707 | 77 | 120 | 2.0 | 3.0 | 0.00 | 0.00 | 0.00 | 66 | 1015.1 |
| 20260906115207 | 77 | 119 | 2.0 | 3.0 | 0.00 | 0.00 | 0.00 | 66 | 1015.1 |
| 20260906114707 | 77 | 118 | 2.0 | 6.0 | 0.00 | 0.00 | 0.00 | 66 | 1015.0 |
| 20260906113708 | 76 | 115 | 1.0 | 2.0 | 0.00 | 0.00 | 0.00 | 68 | 1014.9 |
| 20260906113207 | 76 | 115 | 1.0 | 2.0 | 0.00 | 0.00 | 0.00 | 69 | 1014.8 |
| 20260906112707 | 75 | 115 | 2.0 | 2.0 | 0.00 | 0.00 | 0.00 | 70 | 1014.8 |
| 20260906112207 | 75 | 115 | 1.0 | 2.0 | 0.00 | 0.00 | 0.00 | 70 | 1014.7 |
| 20260906111707 | 75 | 115 | 1.0 | 2.0 | 0.00 | 0.00 | 0.00 | 70 | 1014.7 |
| 20260906111208 | 76 | 115 | 1.0 | 2.0 | 0.00 | 0.00 | 0.00 | 70 | 1014.7 |
| 20260906110707 | 76 | 115 | 1.0 | 2.0 | 0.00 | 0.00 | 0.00 | 69 | 1014.7 |
| 20260906105708 | 77 | 115 | 1.0 | 2.0 | 0.00 | 0.00 | 0.00 | 66 | 1014.6 |
| 20260906105207 | 77 | 115 | 1.0 | 2.0 | 0.00 | 0.00 | 0.00 | 65 | 1014.6 |
| 20260906104708 | 77 | 115 | 1.0 | 2.0 | 0.00 | 0.00 | 0.00 | 64 | 1014.5 |
| 20260906104208 | 77 | 115 | 1.0 | 2.0 | 0.00 | 0.00 | 0.00 | 64 | 1014.5 |
| 20260906103707 | 77 | 115 | 0.0 | 1.0 | 0.00 | 0.00 | 0.00 | 64 | 1014.5 |
| 20260906103207 | 78 | 115 | 1.0 | 2.0 | 0.00 | 0.00 | 0.00 | 63 | 1014.6 |
| 20260906102707 | 78 | 115 | 0.0 | 2.0 | 0.00 | 0.00 | 0.00 | 63 | 1014.6 |
| 20260906102207 | 78 | 115 | 1.0 | 2.0 | 0.00 | 0.00 | 0.00 | 63 | 1014.4 |
| 20260906101707 | 78 | 115 | 1.0 | 2.0 | 0.00 | 0.00 | 0.00 | 62 | 1014.5 |
| 20260906101207 | 79 | 115 | 1.0 | 3.0 | 0.00 | 0.00 | 0.00 | 62 | 1014.6 |
| 20260906100707 | 79 | 115 | 2.0 | 3.0 | 0.00 | 0.00 | 0.00 | 62 | 1014.6 |
| 20260906095207 | 79 | 115 | 2.0 | 3.0 | 0.00 | 0.00 | 0.00 | 61 | 1014.7 |
| 20260906094707 | 79 | 115 | 2.0 | 3.0 | 0.00 | 0.00 | 0.00 | 61 | 1014.7 |
| 20260906094207 | 79 | 115 | 2.0 | 3.0 | 0.00 | 0.00 | 0.00 | 61 | 1014.7 |
| 20260906093708 | 79 | 115 | 2.0 | 3.0 | 0.00 | 0.00 | 0.00 | 61 | 1014.6 |
| 20260906093207 | 79 | 114 | 2.0 | 3.0 | 0.00 | 0.00 | 0.00 | 61 | 1014.6 |
| 20260906092707 | 79 | 114 | 1.0 | 2.0 | 0.00 | 0.00 | 0.00 | 61 | 1014.6 |
| 20260906091707 | 80 | 114 | 2.0 | 3.0 | 0.00 | 0.00 | 0.00 | 60 | 1014.5 |
| 20260906091207 | 80 | 114 | 2.0 | 3.0 | 0.00 | 0.00 | 0.00 | 60 | 1014.6 |
| 20260906090208 | 79 | 114 | 2.0 | 3.0 | 0.00 | 0.00 | 0.00 | 60 | 1014.4 |
| 20260906085708 | 80 | 113 | 1.0 | 2.0 | 0.00 | 0.00 | 0.00 | 60 | 1014.4 |
| 20260906085216 | 80 | 114 | 1.0 | 2.0 | 0.00 | 0.00 | 0.00 | 60 | 1014.4 |
| 20260906084707 | 80 | 114 | 1.0 | 2.0 | 0.00 | 0.00 | 0.00 | 60 | 1014.3 |
| 20260906084207 | 80 | 114 | 2.0 | 3.0 | 0.00 | 0.00 | 0.00 | 60 | 1014.3 |
| 20260906083708 | 80 | 114 | 2.0 | 3.0 | 0.00 | 0.00 | 0.00 | 60 | 1014.3 |
| 20260906083207 | 80 | 114 | 2.0 | 3.0 | 0.00 | 0.00 | 0.00 | 60 | 1014.2 |
| 20260906082207 | 80 | 113 | 1.0 | 3.0 | 0.00 | 0.00 | 0.00 | 59 | 1014.3 |
| 20260906081708 | 80 | 113 | 1.0 | 3.0 | 0.00 | 0.00 | 0.00 | 59 | 1014.4 |
| 20260906081208 | 80 | 112 | 2.0 | 3.0 | 0.00 | 0.00 | 0.00 | 59 | 1014.4 |
| 20260906080708 | 80 | 112 | 1.0 | 3.0 | 0.00 | 0.00 | 0.00 | 59 | 1014.4 |
| 20260906080207 | 80 | 111 | 2.0 | 3.0 | 0.00 | 0.00 | 0.00 | 59 | 1014.3 |
| 20260906075707 | 80 | 111 | 1.0 | 3.0 | 0.00 | 0.00 | 0.00 | 59 | 1014.3 |
| 20260906075207 | 81 | 111 | 1.0 | 3.0 | 0.00 | 0.00 | 0.00 | 58 | 1014.3 |
| 20260906074707 | 81 | 111 | 2.0 | 3.0 | 0.00 | 0.00 | 0.00 | 58 | 1014.5 |
| 20260906074208 | 81 | 109 | 1.0 | 3.0 | 0.00 | 0.00 | 0.00 | 58 | 1014.2 |
| 20260906073708 | 81 | 109 | 2.0 | 6.0 | 0.00 | 0.00 | 0.00 | 58 | 1014.2 |
| 20260906072708 | 81 | 108 | 2.0 | 8.0 | 0.00 | 0.00 | 0.00 | 58 | 1014.1 |
| 20260906071708 | 81 | 112 | 4.0 | 8.0 | 0.00 | 0.00 | 0.00 | 58 | 1014.1 |
| 20260906071208 | 81 | 109 | 2.0 | 6.0 | 0.00 | 0.00 | 0.00 | 57 | 1014.0 |
| 20260906070207 | 81 | 108 | 3.0 | 8.0 | 0.00 | 0.00 | 0.00 | 57 | 1014.1 |
| 20260906065207 | 82 | 109 | 3.0 | 8.0 | 0.00 | 0.00 | 0.00 | 55 | 1014.1 |
| 20260906064707 | 82 | 107 | 3.0 | 8.0 | 0.00 | 0.00 | 0.00 | 55 | 1014.3 |
| 20260906064208 | 81 | 113 | 3.0 | 6.0 | 0.00 | 0.00 | 0.00 | 55 | 1014.2 |
| 20260906063707 | 81 | 121 | 2.0 | 3.0 | 0.00 | 0.00 | 0.00 | 55 | 1014.2 |
| 20260906063207 | 82 | 121 | 2.0 | 3.0 | 0.00 | 0.00 | 0.00 | 55 | 1014.2 |
| 20260906061707 | 82 | 131 | 2.0 | 3.0 | 0.00 | 0.00 | 0.00 | 54 | 1014.2 |
| 20260906061207 | 82 | 134 | 1.0 | 6.0 | 0.00 | 0.00 | 0.00 | 54 | 1014.2 |
| 20260906060707 | 82 | 134 | 2.0 | 6.0 | 0.00 | 0.00 | 0.00 | 53 | 1014.1 |
| 20260906060208 | 83 | 139 | 2.0 | 3.0 | 0.00 | 0.00 | 0.00 | 53 | 1014.1 |
| 20260906055708 | 83 | 139 | 2.0 | 3.0 | 0.00 | 0.00 | 0.00 | 53 | 1014.0 |
| 20260906055207 | 83 | 140 | 1.0 | 6.0 | 0.00 | 0.00 | 0.00 | 52 | 1014.1 |
| 20260906054708 | 83 | 139 | 2.0 | 6.0 | 0.00 | 0.00 | 0.00 | 52 | 1014.1 |
| 20260906054208 | 83 | 138 | 2.0 | 6.0 | 0.00 | 0.00 | 0.00 | 52 | 1014.2 |
| 20260906053707 | 83 | 148 | 1.0 | 3.0 | 0.00 | 0.00 | 0.00 | 51 | 1014.3 |
| 20260906053207 | 84 | 148 | 2.0 | 3.0 | 0.00 | 0.00 | 0.00 | 51 | 1014.3 |
| 20260906052208 | 84 | 149 | 2.0 | 3.0 | 0.00 | 0.00 | 0.00 | 50 | 1014.3 |
| 20260906050207 | 85 | 149 | 3.0 | 6.0 | 0.00 | 0.00 | 0.00 | 49 | 1014.2 |
| 20260906045707 | 85 | 154 | 3.0 | 8.0 | 0.00 | 0.00 | 0.00 | 49 | 1014.1 |
| 20260906045207 | 85 | 153 | 3.0 | 8.0 | 0.00 | 0.00 | 0.00 | 49 | 1014.1 |
| 20260906044707 | 85 | 154 | 4.0 | 7.0 | 0.00 | 0.00 | 0.00 | 49 | 1014.1 |
| 20260906044208 | 85 | 150 | 4.0 | 10.0 | 0.00 | 0.00 | 0.00 | 48 | 1014.0 |
| 20260906043707 | 85 | 152 | 4.0 | 10.0 | 0.00 | 0.00 | 0.00 | 48 | 1014.0 |
| 20260906043207 | 86 | 160 | 5.0 | 8.0 | 0.00 | 0.00 | 0.00 | 48 | 1013.9 |
| 20260906042707 | 86 | 150 | 5.0 | 8.0 | 0.00 | 0.00 | 0.00 | 48 | 1013.9 |
| 20260906042208 | 86 | 150 | 3.0 | 8.0 | 0.00 | 0.00 | 0.00 | 47 | 1013.9 |
| 20260906041707 | 86 | 151 | 4.0 | 8.0 | 0.00 | 0.00 | 0.00 | 47 | 1014.0 |
| 20260906040707 | 86 | 156 | 3.0 | 7.0 | 0.00 | 0.00 | 0.00 | 47 | 1014.2 |
| 20260906040208 | 86 | 157 | 3.0 | 7.0 | 0.00 | 0.00 | 0.00 | 47 | 1014.0 |
| 20260906034707 | 86 | 153 | 4.0 | 8.0 | 0.00 | 0.00 | 0.00 | 47 | 1014.1 |
| 20260906034207 | 87 | 152 | 4.0 | 7.0 | 0.00 | 0.00 | 0.00 | 47 | 1014.0 |
| 20260906033707 | 87 | 157 | 4.0 | 7.0 | 0.00 | 0.00 | 0.00 | 47 | 1014.0 |
| 20260906033207 | 87 | 153 | 3.0 | 7.0 | 0.00 | 0.00 | 0.00 | 47 | 1014.0 |
| 20260906032707 | 87 | 147 | 4.0 | 7.0 | 0.00 | 0.00 | 0.00 | 47 | 1014.0 |
| 20260906032207 | 87 | 135 | 2.0 | 7.0 | 0.00 | 0.00 | 0.00 | 47 | 1013.9 |
| 20260906031207 | 87 | 148 | 5.0 | 7.0 | 0.00 | 0.00 | 0.00 | 46 | 1013.8 |
| 20260906030707 | 88 | 151 | 5.0 | 7.0 | 0.00 | 0.00 | 0.00 | 45 | 1013.8 |
| 20260906030207 | 88 | 150 | 4.0 | 7.0 | 0.00 | 0.00 | 0.00 | 45 | 1013.9 |
| 20260906025707 | 88 | 150 | 4.0 | 7.0 | 0.00 | 0.00 | 0.00 | 45 | 1013.8 |
| 20260906025208 | 88 | 154 | 3.0 | 6.0 | 0.00 | 0.00 | 0.00 | 45 | 1013.9 |
| 20260906024707 | 88 | 150 | 3.0 | 7.0 | 0.00 | 0.00 | 0.00 | 45 | 1013.8 |
| 20260906024207 | 88 | 149 | 3.0 | 8.0 | 0.00 | 0.00 | 0.00 | 44 | 1013.8 |
| 20260906023707 | 88 | 148 | 4.0 | 8.0 | 0.00 | 0.00 | 0.00 | 44 | 1013.6 |
| 20260906023212 | 88 | 156 | 3.0 | 8.0 | 0.00 | 0.00 | 0.00 | 44 | 1013.4 |
| 20260906022707 | 88 | 149 | 5.0 | 8.0 | 0.00 | 0.00 | 0.00 | 44 | 1013.3 |
| 20260906022208 | 88 | 159 | 5.0 | 8.0 | 0.00 | 0.00 | 0.00 | 44 | 1013.3 |
| 20260906021707 | 88 | 156 | 5.0 | 7.0 | 0.00 | 0.00 | 0.00 | 44 | 1013.2 |
| 20260906020707 | 89 | 152 | 3.0 | 7.0 | 0.00 | 0.00 | 0.00 | 45 | 1013.1 |
| 20260906020207 | 89 | 152 | 4.0 | 7.0 | 0.00 | 0.00 | 0.00 | 45 | 1013.0 |
| 20260906015707 | 89 | 142 | 3.0 | 6.0 | 0.00 | 0.00 | 0.00 | 44 | 1013.1 |
| 20260906014707 | 90 | 136 | 2.0 | 3.0 | 0.00 | 0.00 | 0.00 | 43 | 1013.1 |
| 20260906014207 | 90 | 134 | 1.0 | 3.0 | 0.00 | 0.00 | 0.00 | 43 | 1013.2 |
| 20260906013707 | 90 | 134 | 1.0 | 6.0 | 0.00 | 0.00 | 0.00 | 42 | 1013.1 |
| 20260906013207 | 90 | 136 | 2.0 | 6.0 | 0.00 | 0.00 | 0.00 | 42 | 1013.0 |
| 20260906012707 | 90 | 139 | 2.0 | 3.0 | 0.00 | 0.00 | 0.00 | 42 | 1012.8 |
| 20260906011707 | 91 | 142 | 1.0 | 3.0 | 0.00 | 0.00 | 0.00 | 42 | 1012.6 |
| 20260906011207 | 91 | 145 | 1.0 | 3.0 | 0.00 | 0.00 | 0.00 | 42 | 1012.5 |
| 20260906010707 | 91 | 146 | 1.0 | 6.0 | 0.00 | 0.00 | 0.00 | 42 | 1012.6 |
| 20260906010207 | 91 | 149 | 3.0 | 6.0 | 0.00 | 0.00 | 0.00 | 41 | 1012.5 |
| 20260906005707 | 92 | 147 | 2.0 | 6.0 | 0.00 | 0.00 | 0.00 | 41 | 1012.5 |
| 20260906005207 | 92 | 146 | 3.0 | 6.0 | 0.00 | 0.00 | 0.00 | 40 | 1012.5 |
| 20260906004707 | 93 | 147 | 3.0 | 6.0 | 0.00 | 0.00 | 0.00 | 40 | 1012.6 |
| 20260906004207 | 93 | 147 | 2.0 | 8.0 | 0.00 | 0.00 | 0.00 | 39 | 1012.5 |
| 20260906003707 | 93 | 151 | 4.0 | 10.0 | 0.00 | 0.00 | 0.00 | 39 | 1012.5 |
| 20260906003207 | 93 | 150 | 5.0 | 10.0 | 0.00 | 0.00 | 0.00 | 39 | 1012.4 |
| 20260906002707 | 94 | 151 | 5.0 | 12.0 | 0.00 | 0.00 | 0.00 | 38 | 1012.4 |
| 20260906001207 | 95 | 142 | 5.0 | 8.0 | 0.00 | 0.00 | 0.00 | 37 | 1012.5 |
| 20260906000707 | 95 | 142 | 5.0 | 10.0 | 0.00 | 0.00 | 0.00 | 35 | 1012.5 |
| 20260905235707 | 95 | 148 | 6.0 | 10.0 | 0.00 | 0.00 | 0.00 | 34 | 1012.7 |
| 20260905235207 | 96 | 150 | 4.0 | 10.0 | 0.00 | 0.00 | 0.00 | 34 | 1012.7 |
| 20260905234207 | 96 | 154 | 6.0 | 14.0 | 0.00 | 0.00 | 0.00 | 34 | 1012.6 |
| 20260905233708 | 96 | 149 | 6.0 | 14.0 | 0.00 | 0.00 | 0.00 | 33 | 1012.5 |
| 20260905233207 | 97 | 150 | 6.0 | 12.0 | 0.00 | 0.00 | 0.00 | 33 | 1012.5 |
| 20260905232707 | 97 | 165 | 5.0 | 14.0 | 0.00 | 0.00 | 0.00 | 32 | 1012.5 |
| 20260905231707 | 98 | 132 | 5.0 | 12.0 | 0.00 | 0.00 | 0.00 | 32 | 1012.6 |
| 20260905231207 | 98 | 157 | 3.0 | 12.0 | 0.00 | 0.00 | 0.00 | 32 | 1012.7 |
| 20260905230206 | 98 | 122 | 5.0 | 15.0 | 0.00 | 0.00 | 0.00 | 30 | 1012.7 |
| 20260905225707 | 98 | 159 | 3.0 | 15.0 | 0.00 | 0.00 | 0.00 | 31 | 1012.5 |
| 20260905225207 | 98 | 149 | 6.0 | 15.0 | 0.00 | 0.00 | 0.00 | 30 | 1012.6 |
| 20260905224707 | 98 | 152 | 8.0 | 15.0 | 0.00 | 0.00 | 0.00 | 30 | 1012.5 |
| 20260905223707 | 99 | 159 | 5.0 | 15.0 | 0.00 | 0.00 | 0.00 | 32 | 1012.6 |
| 20260905223207 | 99 | 150 | 8.0 | 15.0 | 0.00 | 0.00 | 0.00 | 32 | 1012.6 |
| 20260905222706 | 99 | 147 | 7.0 | 15.0 | 0.00 | 0.00 | 0.00 | 32 | 1012.5 |
| 20260905222207 | 99 | 152 | 6.0 | 16.0 | 0.00 | 0.00 | 0.00 | 32 | 1012.5 |
| 20260905221708 | 99 | 146 | 11.0 | 16.0 | 0.00 | 0.00 | 0.00 | 32 | 1012.5 |
| 20260905221207 | 99 | 155 | 6.0 | 14.0 | 0.00 | 0.00 | 0.00 | 32 | 1012.5 |
| 20260905220707 | 99 | 156 | 7.0 | 14.0 | 0.00 | 0.00 | 0.00 | 32 | 1012.5 |
| 20260905220207 | 100 | 154 | 6.0 | 12.0 | 0.00 | 0.00 | 0.00 | 33 | 1012.5 |
| 20260905215207 | 99 | 115 | 7.0 | 18.0 | 0.00 | 0.00 | 0.00 | 34 | 1012.4 |
| 20260905214707 | 98 | 150 | 7.0 | 16.0 | 0.00 | 0.00 | 0.00 | 34 | 1012.3 |
| 20260905213207 | 99 | 133 | 5.0 | 15.0 | 0.00 | 0.00 | 0.00 | 34 | 1012.5 |
| 20260905212707 | 100 | 120 | 7.0 | 16.0 | 0.00 | 0.00 | 0.00 | 34 | 1012.6 |
| 20260905211707 | 98 | 103 | 6.0 | 18.0 | 0.00 | 0.00 | 0.00 | 35 | 1012.6 |
| 20260905210707 | 99 | 110 | 8.0 | 15.0 | 0.00 | 0.00 | 0.00 | 34 | 1012.6 |
| 20260905210207 | 98 | 151 | 4.0 | 14.0 | 0.00 | 0.00 | 0.00 | 35 | 1012.7 |
| 20260905205707 | 99 | 145 | 8.0 | 16.0 | 0.00 | 0.00 | 0.00 | 35 | 1012.8 |
| 20260905204707 | 99 | 138 | 7.0 | 15.0 | 0.00 | 0.00 | 0.00 | 35 | 1012.9 |
| 20260905204207 | 99 | 139 | 5.0 | 16.0 | 0.00 | 0.00 | 0.00 | 36 | 1013.0 |
| 20260905203207 | 99 | 148 | 9.0 | 15.0 | 0.00 | 0.00 | 0.00 | 35 | 1013.1 |
| 20260905202713 | 99 | 142 | 9.0 | 16.0 | 0.00 | 0.00 | 0.00 | 36 | 1013.3 |
| 20260905202208 | 99 | 167 | 7.0 | 16.0 | 0.00 | 0.00 | 0.00 | 36 | 1013.4 |
| 20260905201707 | 99 | 150 | 5.0 | 15.0 | 0.00 | 0.00 | 0.00 | 36 | 1013.4 |
| 20260905200707 | 98 | 211 | 3.0 | 15.0 | 0.00 | 0.00 | 0.00 | 37 | 1013.6 |
| 20260905200207 | 98 | 156 | 7.0 | 15.0 | 0.00 | 0.00 | 0.00 | 37 | 1013.7 |
| 20260905195707 | 97 | 146 | 6.0 | 15.0 | 0.00 | 0.00 | 0.00 | 38 | 1013.7 |
| 20260905195207 | 97 | 146 | 7.0 | 15.0 | 0.00 | 0.00 | 0.00 | 38 | 1013.8 |
| 20260905194706 | 96 | 202 | 3.0 | 15.0 | 0.00 | 0.00 | 0.00 | 40 | 1013.8 |